Oconto, WI

9:01 AM CST on February 19, 2017 (GMT -0600)
Oconto Municipal

Weather History for KOCQ - February, 2014

Change the Weather History Date:

Wednesday, February 19, 2014

  Actual Average Record
Temperature  
Mean Temperature 28 °F -  
Max Temperature 42 °F 31 °F 47 °F (2016)
Min Temperature 14 °F 13 °F -14 °F (2015)
Degree Days  
Heating Degree Days 37    
Moisture  
Dew Point 21 °F    
Average Humidity 72    
Maximum Humidity 98    
Minimum Humidity 42    
Precipitation  
Precipitation 0.00 in - - ()
Sea Level Pressure  
Sea Level Pressure 29.77 in    
Wind  
Wind Speed 5 mph (WSW)    
Max Wind Speed 14 mph    
Max Gust Speed 18 mph    
Visibility 8 miles    
Events      
Averages and records for this station are not official NWS values.
T = Trace of Precipitation, MM = Missing Value Source: NWS Daily Summary

Daily Weather History Graph

Daily Weather History Graph

Search for Another Location

Airport or City:

Trip Planner

Search our weather history database for the weather conditions in past years. The results will help you decide how hot, cold, wet, or windy it might be!

Date:

Astronomy

Feb. 19, 2014 Rise Set
Actual Time 6:46 AM CST 5:25 PM CST
Civil Twilight 6:16 AM CST 5:55 PM CST
Nautical Twilight 5:42 AM CST 6:29 PM CST
Astronomical Twilight 5:08 AM CST 7:03 PM CST
Moon 10:33 PM CST 8:38 AM CST
Length of Visible Light 11h 39m
Length of Day
10h 39m
Waning Gibbous, 79% of the Moon is Illuminated
Feb 19
Waning Gibbous
Feb 22
Last Quarter
Mar 1
New
Mar 8
First Quarter
Mar 16
Full

Hourly Weather History & Observations

Time (CST) Temp. Windchill Dew Point Humidity Pressure Visibility Wind Dir Wind Speed Gust Speed Precip Events Conditions
12:15 AM 23.0 °F 18.4 °F 22.3 °F 97% 29.60 in 4.0 mi West 3.5 mph - N/A   Overcast
12:35 AM 23.2 °F 18.7 °F 22.3 °F 96% 29.60 in 4.0 mi West 3.5 mph - N/A   Overcast
12:55 AM 25.3 °F 21.1 °F 24.8 °F 98% 29.61 in 5.0 mi WSW 3.5 mph - N/A   Overcast
1:15 AM 25.7 °F - 25.0 °F 97% 29.61 in 5.0 mi Calm Calm - N/A   Overcast
1:35 AM 24.1 °F - 23.2 °F 96% 29.61 in 5.0 mi Calm Calm - N/A   Overcast
1:55 AM 24.1 °F - 23.2 °F 96% 29.61 in 5.0 mi Calm Calm - N/A   Mostly Cloudy
2:15 AM 21.6 °F - 20.5 °F 96% 29.61 in 3.0 mi Calm Calm - N/A   Scattered Clouds
2:35 AM 19.2 °F 12.5 °F 18.0 °F 95% 29.62 in 2.0 mi West 4.6 mph - N/A   Clear
2:55 AM 18.0 °F 9.8 °F 16.7 °F 95% 29.62 in 3.0 mi West 5.8 mph - N/A   Clear
3:15 AM 15.8 °F 10.2 °F 14.0 °F 93% 29.62 in 2.5 mi West 3.5 mph - N/A   Clear
3:35 AM 15.8 °F 10.2 °F 14.4 °F 94% 29.62 in 0.5 mi West 3.5 mph - N/A   Scattered Clouds
3:55 AM 14.9 °F 7.5 °F 13.5 °F 94% 29.63 in 0.5 mi West 4.6 mph - N/A   Mostly Cloudy
4:15 AM 16.7 °F 9.6 °F 15.4 °F 95% 29.64 in 2.0 mi WSW 4.6 mph - N/A   Clear
4:35 AM 19.4 °F 14.3 °F 18.1 °F 95% 29.64 in 2.5 mi WSW 3.5 mph - N/A   Clear
4:55 AM 18.0 °F 12.7 °F 16.5 °F 94% 29.65 in 2.0 mi West 3.5 mph - N/A   Clear
5:15 AM 18.5 °F 10.4 °F 17.6 °F 96% 29.66 in 1.5 mi West 5.8 mph - N/A   Scattered Clouds
5:35 AM 18.7 °F 10.6 °F 17.4 °F 95% 29.66 in 5.0 mi West 5.8 mph - N/A   Clear
5:55 AM 19.8 °F 11.9 °F 18.5 °F 95% 29.68 in 7.0 mi West 5.8 mph - N/A   Clear
6:15 AM 20.8 °F 13.2 °F 19.6 °F 95% 29.68 in 10.0 mi West 5.8 mph - N/A   Clear
6:35 AM 17.2 °F 10.2 °F 15.8 °F 94% 29.70 in 7.0 mi West 4.6 mph - N/A   Clear
6:55 AM 16.5 °F 11.0 °F 14.9 °F 93% 29.70 in 7.0 mi WSW 3.5 mph - N/A   Clear
7:15 AM 18.0 °F 11.1 °F 16.5 °F 94% 29.71 in 7.0 mi WSW 4.6 mph - N/A   Clear
7:30 AM 19.6 °F 11.7 °F 18.7 °F 96% 29.72 in 7.0 mi West 5.8 mph - N/A   Clear
7:55 AM 23.0 °F 17.0 °F 22.1 °F 96% 29.73 in 10.0 mi West 4.6 mph - N/A   Clear
8:15 AM 23.0 °F 15.8 °F 22.1 °F 96% 29.73 in 10.0 mi West 5.8 mph - N/A   Clear
8:35 AM 24.8 °F 16.9 °F 23.9 °F 96% 29.74 in 10.0 mi West 6.9 mph - N/A   Clear
8:55 AM 27.3 °F 18.4 °F 25.5 °F 93% 29.75 in 10.0 mi West 9.2 mph - N/A   Clear
9:15 AM 29.8 °F 20.9 °F 22.1 °F 73% 29.76 in 10.0 mi West 10.4 mph - N/A   Clear
9:35 AM 31.3 °F 24.7 °F 21.2 °F 66% 29.77 in 10.0 mi West 6.9 mph - N/A   Clear
9:55 AM 32.0 °F 23.6 °F 21.2 °F 64% 29.78 in 10.0 mi West 10.4 mph - N/A   Clear
10:15 AM 32.9 °F 24.7 °F 21.6 °F 63% 29.79 in 10.0 mi West 10.4 mph - N/A   Clear
10:35 AM 33.8 °F 26.4 °F 21.7 °F 61% 29.79 in 10.0 mi West 9.2 mph - N/A   Clear
10:55 AM 34.7 °F 26.4 °F 21.7 °F 59% 29.79 in 10.0 mi West 11.5 mph - N/A   Clear
11:15 AM 36.3 °F 30.1 °F 21.4 °F 55% 29.79 in 10.0 mi West 8.1 mph - N/A   Clear
11:35 AM 37.0 °F 30.4 °F 22.6 °F 56% 29.80 in 10.0 mi WSW 9.2 mph - N/A   Clear
11:55 AM 37.9 °F 30.9 °F 21.9 °F 53% 29.80 in 10.0 mi West 10.4 mph - N/A   Clear
12:15 PM 39.0 °F 33.4 °F 22.1 °F 51% 29.79 in 10.0 mi WSW 8.1 mph - N/A   Clear
12:35 PM 39.4 °F 33.2 °F 22.1 °F 50% 29.79 in 10.0 mi West 9.2 mph - N/A   Clear
12:55 PM 39.7 °F 34.9 °F 22.1 °F 49% 29.79 in 10.0 mi WSW 6.9 mph - N/A   Clear
1:15 PM 40.1 °F 33.6 °F 22.1 °F 49% 29.79 in 10.0 mi West 10.4 mph - N/A   Clear
1:35 PM 40.6 °F 33.4 °F 21.7 °F 47% 29.79 in 10.0 mi WSW 12.7 mph 18.4 mph N/A   Clear
1:55 PM 41.4 °F 34.3 °F 21.0 °F 44% 29.79 in 10.0 mi West 12.7 mph - N/A   Clear
2:15 PM 41.2 °F 34.5 °F 22.1 °F 47% 29.80 in 10.0 mi SW 11.5 mph - N/A   Clear
2:30 PM 41.4 °F 34.7 °F 22.5 °F 47% 29.80 in 10.0 mi SW 11.5 mph - N/A   Clear
2:55 PM 41.4 °F 34.0 °F 22.3 °F 47% 29.82 in 10.0 mi WSW 13.8 mph - N/A   Clear
3:09 PM 42.8 °F 36.6 °F 21.2 °F 42% 29.82 in 10.0 mi WSW 11.5 mph 17.3 mph N/A   Clear
3:15 PM 41.4 °F 35.2 °F 22.6 °F 47% 29.82 in 10.0 mi WSW 10.4 mph - N/A   Clear
3:35 PM 41.5 °F 35.4 °F 21.9 °F 46% 29.82 in 10.0 mi SW 10.4 mph - N/A   Clear
3:55 PM 41.4 °F 36.8 °F 22.3 °F 47% 29.82 in 10.0 mi SW 6.9 mph - N/A   Clear
4:15 PM 41.0 °F 35.2 °F 21.9 °F 47% 29.83 in 10.0 mi SW 9.2 mph - N/A   Clear
4:35 PM 40.8 °F 36.2 °F 22.1 °F 47% 29.84 in 10.0 mi SW 6.9 mph - N/A   Clear
4:55 PM 39.7 °F 33.7 °F 22.8 °F 51% 29.85 in 10.0 mi SW 9.2 mph - N/A   Clear
5:15 PM 39.2 °F 35.0 °F 23.5 °F 53% 29.85 in 10.0 mi SSW 5.8 mph - N/A   Clear
5:35 PM 38.5 °F 35.0 °F 23.7 °F 55% 29.86 in 10.0 mi SW 4.6 mph - N/A   Clear
5:55 PM 37.4 °F 34.9 °F 23.4 °F 57% 29.86 in 10.0 mi South 3.5 mph - N/A   Clear
6:15 PM 35.6 °F 31.7 °F 23.0 °F 60% 29.87 in 10.0 mi South 4.6 mph - N/A   Clear
6:35 PM 35.6 °F 31.7 °F 23.4 °F 61% 29.87 in 10.0 mi South 4.6 mph - N/A   Clear
6:55 PM 35.1 °F 31.0 °F 23.9 °F 64% 29.87 in 10.0 mi South 4.6 mph - N/A   Clear
7:15 PM 35.1 °F 31.0 °F 24.3 °F 65% 29.87 in 10.0 mi South 4.6 mph - N/A   Clear
7:35 PM 34.5 °F 31.6 °F 24.4 °F 67% 29.86 in 10.0 mi South 3.5 mph - N/A   Clear
7:55 PM 33.4 °F - 24.1 °F 69% 29.87 in 10.0 mi Calm Calm - N/A   Clear
8:15 PM 28.0 °F - 21.4 °F 76% 29.87 in 10.0 mi Calm Calm - N/A   Clear
8:35 PM 30.4 °F - 23.5 °F 76% 29.86 in 10.0 mi Calm Calm - N/A   Clear
8:55 PM 30.7 °F 27.3 °F 23.2 °F 74% 29.87 in 10.0 mi South 3.5 mph - N/A   Clear
9:15 PM 31.3 °F 27.9 °F 23.7 °F 74% 29.87 in 10.0 mi SSW 3.5 mph - N/A   Clear
9:35 PM 32.4 °F 29.1 °F 23.7 °F 70% 29.86 in 10.0 mi SSW 3.5 mph - N/A   Clear
9:55 PM 32.0 °F - 23.4 °F 70% 29.87 in 10.0 mi Calm Calm - N/A   Clear
10:15 PM 30.7 °F - 23.0 °F 73% 29.86 in 10.0 mi Calm Calm - N/A   Clear
10:23 PM 32.0 °F - 23.0 °F 69% 29.86 in 10.0 mi Calm Calm - N/A   Clear
10:35 PM 31.5 °F 28.1 °F 23.4 °F 72% 29.87 in 10.0 mi SSW 3.5 mph - N/A   Clear
10:55 PM 32.0 °F 26.4 °F 23.4 °F 70% 29.88 in 10.0 mi SW 5.8 mph - N/A   Clear
11:10 PM 32.2 °F 28.9 °F 23.4 °F 70% 29.88 in 10.0 mi SSW 3.5 mph - N/A   Clear
11:18 PM 32.0 °F 28.7 °F 23.0 °F 69% 29.88 in 10.0 mi SW 3.5 mph - N/A   Clear
11:35 PM 32.0 °F - 23.4 °F 70% 29.89 in 10.0 mi Calm Calm - N/A   Clear
11:40 PM 32.0 °F - 23.0 °F 69% 29.89 in 10.0 mi Calm Calm - N/A   Clear
11:55 PM 31.1 °F - 23.0 °F 72% 29.89 in 10.0 mi Calm Calm - N/A   Scattered Clouds